sat.trackr.live / text

‹ back to catalog

STARLINK-11137 [DTC]

NORAD 60050 · 2024-112N

PAYLOAD ACTIVE UNKNOWN

§ Identity

Operator
Country
US
Launch date
2024-06-08
Launch site
AFWTR
Launch vehicle
Mass (kg)
RCS (m²)

Purposes: comms

External: N2YO · Heavens-Above · Gunter

§ Orbital elements

Epoch: 2026-05-25T00:29:35.193408Z

Period
91.74 min
Inclination
53.1591°
Eccentricity
0.0000944
Mean motion
15.69714864 rev/d
Perigee alt
359.1 km
Apogee alt
360.3 km
Semi-major
6,737.8 km
B*
2.1665e-6
RAAN
249.6916°
Arg perigee
56.1034°
Mean anomaly
304.0073°
Rev number
11,297

§ Raw data

STARLINK-11137 [DTC]1 60050U 24112N   26145.02054622 -.00000326  00000+0  21665-5 0  99962 60050  53.1591 249.6916 0000944  56.1034 304.0073 15.69714864112978

JSON: /api/v1/satellites/60050 · /tle

For live sub-satellite position, see the globe view (requires WebGL).

§ Visibility from observer

Set your observer location to see the next 7 days of passes ≥ 10°. The values pass through the URL so the page stays shareable.

No JS? Fill the form by hand. The geolocation button needs JavaScript.